{"data":{"norad_id":41877,"epoch":"2026-05-25T04:43:01.334208Z","epoch_age_seconds":51830,"freshness":"FRESH","line1":"1 41877U 16074A   26145.19654322 -.00000018  00000+0  11854-4 0  9997","line2":"2 41877  98.7524 218.8880 0003029 128.1943 231.9508 14.21607390491039","mean_motion":14.2160739,"eccentricity":0.0003029,"inclination_deg":98.7524,"raan_deg":218.888,"arg_perigee_deg":128.1943,"mean_anomaly_deg":231.9508,"bstar":1.1854e-5,"rev_number":49103,"period_min":101.29378970097,"perigee_km":817.7415580419,"apogee_km":822.10214209327,"semimajor_km":7198.0588500676,"source":"CELESTRAK","updated_at":"2026-05-25T13:38:12.824839Z"}}